contact:dominique.lefevre@mio.osupytheas.fr, maurice.libes@osupytheas.fr, didier.mallarino@osupytheas.fr
Project:EMSO http://www.emso-fr.org/EMSO-France
Depth: 2436.0 m
Title:EMSO Ligure Ouest : Data MII capteur CSTAR
DateTime,Latitude,Longitude,Instrument_Serial,Reference_Counts,Signal_Counts,Corrected_Signal_raw_counts,Calculated_Beam_c_inverse_meters,Internal_thermistor_counts
DateTime,Latitude,Longitude,Instrument_Serial,Reference_Counts,Signal_Counts,Corrected_Signal_raw_counts,Calculated_Beam_c_inverse_meters,Internal_thermistor_counts
2022-08-07T00:00:38,42.805,6.029,CST-1368DR,4626,5121,11790,01.124,551
2022-08-07T00:03:40,42.805,6.029,CST-1368DR,4626,5121,11789,01.125,551
2022-08-07T00:06:42,42.805,6.029,CST-1368DR,4626,5116,11777,01.129,551
2022-08-07T00:09:43,42.805,6.029,CST-1368DR,4626,5122,11792,01.123,551
2022-08-07T00:12:45,42.805,6.029,CST-1368DR,4626,5116,11778,01.128,551
2022-08-07T00:15:46,42.805,6.029,CST-1368DR,4626,5118,11783,01.127,551
2022-08-07T00:18:48,42.805,6.029,CST-1368DR,4626,5115,11774,01.130,551
2022-08-07T00:21:50,42.805,6.029,CST-1368DR,4626,5126,11800,01.121,551
2022-08-07T00:24:51,42.805,6.029,CST-1368DR,4626,5118,11781,01.127,551
2022-08-07T00:27:53,42.805,6.029,CST-1368DR,4626,5118,11783,01.127,551
2022-08-07T00:30:54,42.805,6.029,CST-1368DR,4626,5117,11780,01.128,551
2022-08-07T00:33:56,42.805,6.029,CST-1368DR,4626,5121,11789,01.125,551
2022-08-07T00:36:57,42.805,6.029,CST-1368DR,4626,5120,11787,01.125,551
2022-08-07T00:39:59,42.805,6.029,CST-1368DR,4626,5118,11783,01.127,551
2022-08-07T00:43:01,42.805,6.029,CST-1368DR,4626,5124,11795,01.122,551
2022-08-07T00:46:02,42.805,6.029,CST-1368DR,4626,5120,11788,01.125,551
2022-08-07T00:49:04,42.805,6.029,CST-1368DR,4626,5121,11789,01.125,551
2022-08-07T00:52:05,42.805,6.029,CST-1368DR,4626,5123,11793,01.123,551
2022-08-07T00:55:07,42.805,6.029,CST-1368DR,4626,5119,11784,01.126,551
2022-08-07T00:58:08,42.805,6.029,CST-1368DR,4626,5122,11791,01.124,551
2022-08-07T01:01:10,42.805,6.029,CST-1368DR,4626,5118,11782,01.127,551
2022-08-07T01:04:12,42.805,6.029,CST-1368DR,4626,5120,11786,01.126,551
2022-08-07T01:07:13,42.805,6.029,CST-1368DR,4626,5118,11783,01.127,551
2022-08-07T01:10:15,42.805,6.029,CST-1368DR,4626,5115,11776,01.129,551
2022-08-07T01:13:16,42.805,6.029,CST-1368DR,4626,5117,11781,01.127,551
2022-08-07T01:16:18,42.805,6.029,CST-1368DR,4626,5118,11783,01.127,551
2022-08-07T01:19:20,42.805,6.029,CST-1368DR,4626,5113,11772,01.130,551
2022-08-07T01:22:21,42.805,6.029,CST-1368DR,4626,5120,11788,01.125,551
2022-08-07T01:25:23,42.805,6.029,CST-1368DR,4626,5118,11783,01.127,551
2022-08-07T01:28:24,42.805,6.029,CST-1368DR,4626,5120,11786,01.126,551
2022-08-07T01:31:26,42.805,6.029,CST-1368DR,4626,5116,11778,01.128,551
2022-08-07T01:34:27,42.805,6.029,CST-1368DR,4626,5124,11796,01.122,551
2022-08-07T01:37:29,42.805,6.029,CST-1368DR,4626,5119,11784,01.126,551
2022-08-07T01:40:31,42.805,6.029,CST-1368DR,4626,5118,11782,01.127,551
2022-08-07T01:43:32,42.805,6.029,CST-1368DR,4626,5118,11783,01.127,551
2022-08-07T01:46:34,42.805,6.029,CST-1368DR,4626,5122,11791,01.124,551
2022-08-07T01:49:35,42.805,6.029,CST-1368DR,4626,5120,11787,01.125,551
2022-08-07T01:52:37,42.805,6.029,CST-1368DR,4626,5117,11781,01.127,551
2022-08-07T01:55:39,42.805,6.029,CST-1368DR,4626,5118,11782,01.127,551
2022-08-07T01:58:40,42.805,6.029,CST-1368DR,4626,5116,11778,01.128,551
2022-08-07T02:01:42,42.805,6.029,CST-1368DR,4626,5116,11778,01.128,551
2022-08-07T02:04:43,42.805,6.029,CST-1368DR,4626,5116,11778,01.128,551
2022-08-07T02:07:45,42.805,6.029,CST-1368DR,4626,5117,11779,01.128,551
2022-08-07T02:10:46,42.805,6.029,CST-1368DR,4626,5118,11783,01.127,551
2022-08-07T02:13:48,42.805,6.029,CST-1368DR,4626,5118,11783,01.127,551
2022-08-07T02:16:50,42.805,6.029,CST-1368DR,4626,5117,11779,01.128,551
2022-08-07T02:19:51,42.805,6.029,CST-1368DR,4626,5114,11774,01.130,551
2022-08-07T02:22:53,42.805,6.029,CST-1368DR,4626,5119,11784,01.126,551
2022-08-07T02:25:54,42.805,6.029,CST-1368DR,4626,5117,11781,01.127,551
2022-08-07T02:28:56,42.805,6.029,CST-1368DR,4626,5117,11781,01.127,551
2022-08-07T02:31:57,42.805,6.029,CST-1368DR,4626,5118,11783,01.127,551
2022-08-07T02:34:59,42.805,6.029,CST-1368DR,4626,5117,11781,01.127,551
2022-08-07T02:38:01,42.805,6.029,CST-1368DR,4626,5118,11781,01.127,551
2022-08-07T02:41:02,42.805,6.029,CST-1368DR,4626,5117,11780,01.128,551
2022-08-07T02:44:04,42.805,6.029,CST-1368DR,4626,5119,11784,01.126,551
2022-08-07T02:47:05,42.805,6.029,CST-1368DR,4626,5120,11787,01.125,551
2022-08-07T02:50:07,42.805,6.029,CST-1368DR,4626,5115,11776,01.129,551
2022-08-07T02:53:09,42.805,6.029,CST-1368DR,4626,5118,11781,01.127,551
2022-08-07T02:56:10,42.805,6.029,CST-1368DR,4626,5117,11780,01.128,551
2022-08-07T02:59:12,42.805,6.029,CST-1368DR,4626,5118,11782,01.127,551
2022-08-07T03:02:13,42.805,6.029,CST-1368DR,4626,5116,11778,01.128,551
2022-08-07T03:05:15,42.805,6.029,CST-1368DR,4626,5116,11778,01.128,551
2022-08-07T03:08:16,42.805,6.029,CST-1368DR,4626,5117,11780,01.128,551
2022-08-07T03:11:18,42.805,6.029,CST-1368DR,4626,5113,11772,01.130,551
2022-08-07T03:14:20,42.805,6.029,CST-1368DR,4626,5117,11779,01.128,551
2022-08-07T03:17:21,42.805,6.029,CST-1368DR,4626,5116,11777,01.129,551
2022-08-07T03:20:23,42.805,6.029,CST-1368DR,4626,5117,11780,01.128,551
2022-08-07T03:23:24,42.805,6.029,CST-1368DR,4626,5117,11780,01.128,551
2022-08-07T03:26:26,42.805,6.029,CST-1368DR,4626,5115,11775,01.129,551
2022-08-07T03:29:27,42.805,6.029,CST-1368DR,4626,5114,11774,01.130,551
2022-08-07T03:32:29,42.805,6.029,CST-1368DR,4626,5115,11776,01.129,550
2022-08-07T03:35:31,42.805,6.029,CST-1368DR,4626,5116,11778,01.128,551
2022-08-07T03:38:32,42.805,6.029,CST-1368DR,4626,5123,11795,01.122,551
2022-08-07T03:41:34,42.805,6.029,CST-1368DR,4626,5115,11776,01.129,551
2022-08-07T03:44:35,42.805,6.029,CST-1368DR,4626,5116,11778,01.128,551
2022-08-07T03:47:37,42.805,6.029,CST-1368DR,4626,5115,11775,01.129,551
2022-08-07T03:50:39,42.805,6.029,CST-1368DR,4626,5113,11772,01.130,551
2022-08-07T03:53:40,42.805,6.029,CST-1368DR,4626,5114,11774,01.130,551
2022-08-07T03:56:42,42.805,6.029,CST-1368DR,4626,5115,11776,01.129,551
2022-08-07T03:59:43,42.805,6.029,CST-1368DR,4626,5116,11778,01.128,551
2022-08-07T04:02:45,42.805,6.029,CST-1368DR,4626,5115,11776,01.129,551
2022-08-07T04:05:46,42.805,6.029,CST-1368DR,4626,5114,11774,01.130,551
2022-08-07T04:08:48,42.805,6.029,CST-1368DR,4626,5115,11776,01.129,551
2022-08-07T04:11:50,42.805,6.029,CST-1368DR,4626,5115,11775,01.129,551
2022-08-07T04:14:51,42.805,6.029,CST-1368DR,4626,5112,11768,01.132,551
2022-08-07T04:17:53,42.805,6.029,CST-1368DR,4626,5112,11769,01.131,551
2022-08-07T04:20:54,42.805,6.029,CST-1368DR,4626,5110,11765,01.133,551
2022-08-07T04:23:56,42.805,6.029,CST-1368DR,4626,5111,11765,01.133,551
2022-08-07T04:26:57,42.805,6.029,CST-1368DR,4626,5112,11768,01.132,551
2022-08-07T04:29:59,42.805,6.029,CST-1368DR,4626,5111,11766,01.132,551
2022-08-07T04:33:01,42.805,6.029,CST-1368DR,4626,5113,11772,01.130,551
2022-08-07T04:36:02,42.805,6.029,CST-1368DR,4626,5112,11769,01.131,551
2022-08-07T04:39:04,42.805,6.029,CST-1368DR,4626,5112,11769,01.131,551
2022-08-07T04:42:05,42.805,6.029,CST-1368DR,4626,5114,11773,01.130,551
2022-08-07T04:45:07,42.805,6.029,CST-1368DR,4626,5111,11765,01.133,551
2022-08-07T04:48:09,42.805,6.029,CST-1368DR,4626,5111,11766,01.132,551
2022-08-07T04:51:10,42.805,6.029,CST-1368DR,4626,5115,11774,01.130,551
2022-08-07T04:54:12,42.805,6.029,CST-1368DR,4626,5110,11765,01.133,551
2022-08-07T04:57:13,42.805,6.029,CST-1368DR,4626,5113,11770,01.131,551
2022-08-07T05:00:15,42.805,6.029,CST-1368DR,4626,5111,11766,01.132,551
2022-08-07T05:03:16,42.805,6.029,CST-1368DR,4626,5109,11761,01.134,551
2022-08-07T05:06:18,42.805,6.029,CST-1368DR,4626,5111,11766,01.132,551
2022-08-07T05:09:20,42.805,6.029,CST-1368DR,4626,5112,11769,01.131,551
2022-08-07T05:12:21,42.805,6.029,CST-1368DR,4626,5111,11767,01.132,551
2022-08-07T05:15:23,42.805,6.029,CST-1368DR,4626,5111,11766,01.132,551
2022-08-07T05:18:24,42.805,6.029,CST-1368DR,4626,5111,11766,01.132,551
2022-08-07T05:21:26,42.805,6.029,CST-1368DR,4626,5110,11764,01.133,551
2022-08-07T05:24:28,42.805,6.029,CST-1368DR,4626,5111,11766,01.132,551
2022-08-07T05:27:29,42.805,6.029,CST-1368DR,4626,5113,11770,01.131,551
2022-08-07T05:30:31,42.805,6.029,CST-1368DR,4626,5112,11769,01.131,551
2022-08-07T05:33:32,42.805,6.029,CST-1368DR,4626,5120,11787,01.125,551
2022-08-07T05:36:34,42.805,6.029,CST-1368DR,4626,5112,11768,01.132,551
2022-08-07T05:39:35,42.805,6.029,CST-1368DR,4626,5110,11765,01.133,551
2022-08-07T05:42:37,42.805,6.029,CST-1368DR,4626,5110,11764,01.133,551
2022-08-07T05:45:39,42.805,6.029,CST-1368DR,4626,5112,11768,01.132,551
2022-08-07T05:48:40,42.805,6.029,CST-1368DR,4626,5110,11764,01.133,551
2022-08-07T05:51:42,42.805,6.029,CST-1368DR,4626,5105,11751,01.137,551
2022-08-07T05:54:43,42.805,6.029,CST-1368DR,4626,5109,11762,01.134,551
2022-08-07T05:57:45,42.805,6.029,CST-1368DR,4626,5109,11761,01.134,551
2022-08-07T06:00:46,42.805,6.029,CST-1368DR,4626,5105,11752,01.137,551
2022-08-07T06:03:48,42.805,6.029,CST-1368DR,4626,5107,11756,01.136,551
2022-08-07T06:06:50,42.805,6.029,CST-1368DR,4626,5106,11755,01.136,551
2022-08-07T06:09:51,42.805,6.029,CST-1368DR,4626,5106,11755,01.136,551
2022-08-07T06:12:53,42.805,6.029,CST-1368DR,4626,5107,11757,01.135,551
2022-08-07T06:15:54,42.805,6.029,CST-1368DR,4626,5112,11768,01.132,551
2022-08-07T06:18:56,42.805,6.029,CST-1368DR,4626,5111,11765,01.133,551
2022-08-07T06:21:57,42.805,6.029,CST-1368DR,4626,5111,11765,01.133,551
2022-08-07T06:24:59,42.805,6.029,CST-1368DR,4626,5111,11765,01.133,551
2022-08-07T06:28:01,42.805,6.029,CST-1368DR,4626,5113,11772,01.130,551
2022-08-07T06:31:02,42.805,6.029,CST-1368DR,4626,5111,11767,01.132,551
2022-08-07T06:34:04,42.805,6.029,CST-1368DR,4626,5112,11769,01.131,551
2022-08-07T06:37:05,42.805,6.029,CST-1368DR,4626,5111,11766,01.132,551
2022-08-07T06:40:07,42.805,6.029,CST-1368DR,4626,5112,11768,01.132,551
2022-08-07T06:43:09,42.805,6.029,CST-1368DR,4626,5112,11768,01.132,551
2022-08-07T06:46:10,42.805,6.029,CST-1368DR,4626,5110,11764,01.133,551
2022-08-07T06:49:12,42.805,6.029,CST-1368DR,4626,5113,11771,01.131,551
2022-08-07T06:52:13,42.805,6.029,CST-1368DR,4626,5113,11771,01.131,551
2022-08-07T06:55:15,42.805,6.029,CST-1368DR,4626,5114,11772,01.130,551
2022-08-07T06:58:16,42.805,6.029,CST-1368DR,4626,5112,11768,01.132,551
2022-08-07T07:01:18,42.805,6.029,CST-1368DR,4626,5113,11772,01.130,551
2022-08-07T07:04:20,42.805,6.029,CST-1368DR,4626,5113,11770,01.131,551
2022-08-07T07:07:21,42.805,6.029,CST-1368DR,4626,5114,11772,01.130,551
2022-08-07T07:10:23,42.805,6.029,CST-1368DR,4626,5114,11773,01.130,551
2022-08-07T07:13:24,42.805,6.029,CST-1368DR,4626,5113,11772,01.130,551
2022-08-07T07:16:26,42.805,6.029,CST-1368DR,4626,5113,11771,01.131,551
2022-08-07T07:19:28,42.805,6.029,CST-1368DR,4626,5112,11769,01.131,551
2022-08-07T07:22:29,42.805,6.029,CST-1368DR,4626,5115,11774,01.130,551
2022-08-07T07:25:31,42.805,6.029,CST-1368DR,4626,5114,11773,01.130,551
2022-08-07T07:28:32,42.805,6.029,CST-1368DR,4626,5118,11783,01.127,551
2022-08-07T07:31:34,42.805,6.029,CST-1368DR,4626,5113,11772,01.130,551
2022-08-07T07:34:35,42.805,6.029,CST-1368DR,4626,5110,11763,01.133,551
2022-08-07T07:37:37,42.805,6.029,CST-1368DR,4626,5114,11773,01.130,551
2022-08-07T07:40:39,42.805,6.029,CST-1368DR,4626,5115,11774,01.130,551
2022-08-07T07:43:40,42.805,6.029,CST-1368DR,4626,5115,11776,01.129,551
2022-08-07T07:46:42,42.805,6.029,CST-1368DR,4626,5117,11781,01.127,551
2022-08-07T07:49:43,42.805,6.029,CST-1368DR,4626,5114,11773,01.130,551
2022-08-07T07:52:45,42.805,6.029,CST-1368DR,4626,5113,11770,01.131,551
2022-08-07T07:55:46,42.805,6.029,CST-1368DR,4626,5114,11773,01.130,551
2022-08-07T07:58:48,42.805,6.029,CST-1368DR,4626,5113,11771,01.131,551
2022-08-07T08:01:50,42.805,6.029,CST-1368DR,4626,5115,11776,01.129,551
2022-08-07T08:04:51,42.805,6.029,CST-1368DR,4626,5115,11776,01.129,551
2022-08-07T08:07:53,42.805,6.029,CST-1368DR,4626,5114,11773,01.130,551
2022-08-07T08:10:54,42.805,6.029,CST-1368DR,4626,5114,11773,01.130,551
2022-08-07T08:13:56,42.805,6.029,CST-1368DR,4626,5115,11774,01.130,551
2022-08-07T08:16:58,42.805,6.029,CST-1368DR,4626,5113,11771,01.131,551
2022-08-07T08:19:59,42.805,6.029,CST-1368DR,4626,5115,11775,01.129,551
2022-08-07T08:23:01,42.805,6.029,CST-1368DR,4626,5115,11776,01.129,551
2022-08-07T08:26:02,42.805,6.029,CST-1368DR,4626,5115,11774,01.130,551
2022-08-07T08:29:04,42.805,6.029,CST-1368DR,4626,5117,11781,01.127,551
2022-08-07T08:32:05,42.805,6.029,CST-1368DR,4626,5111,11767,01.132,551
2022-08-07T08:35:07,42.805,6.029,CST-1368DR,4626,5116,11778,01.128,551
2022-08-07T08:38:09,42.805,6.029,CST-1368DR,4626,5115,11776,01.129,551
2022-08-07T08:41:10,42.805,6.029,CST-1368DR,4626,5115,11776,01.129,551
2022-08-07T08:44:12,42.805,6.029,CST-1368DR,4626,5114,11773,01.130,551
2022-08-07T08:47:13,42.805,6.029,CST-1368DR,4626,5117,11780,01.128,551
2022-08-07T08:50:15,42.805,6.029,CST-1368DR,4626,5115,11776,01.129,551
2022-08-07T08:53:17,42.805,6.029,CST-1368DR,4626,5116,11778,01.128,551
2022-08-07T08:56:18,42.805,6.029,CST-1368DR,4626,5121,11788,01.125,551
2022-08-07T08:59:20,42.805,6.029,CST-1368DR,4626,5115,11776,01.129,551
2022-08-07T09:02:21,42.805,6.029,CST-1368DR,4626,5115,11776,01.129,551
2022-08-07T09:05:23,42.805,6.029,CST-1368DR,4626,5115,11774,01.130,551
2022-08-07T09:08:24,42.805,6.029,CST-1368DR,4626,5115,11776,01.129,551
2022-08-07T09:11:26,42.805,6.029,CST-1368DR,4626,5116,11778,01.128,551
2022-08-07T09:14:28,42.805,6.029,CST-1368DR,4626,5117,11779,01.128,551
2022-08-07T09:17:29,42.805,6.029,CST-1368DR,4626,5115,11774,01.130,551
2022-08-07T09:20:31,42.805,6.029,CST-1368DR,4626,5117,11780,01.128,551
2022-08-07T09:23:32,42.805,6.029,CST-1368DR,4626,5116,11778,01.128,551
2022-08-07T09:26:34,42.805,6.029,CST-1368DR,4626,5114,11773,01.130,551
2022-08-07T09:29:35,42.805,6.029,CST-1368DR,4626,5115,11776,01.129,551
2022-08-07T09:32:37,42.805,6.029,CST-1368DR,4626,5114,11774,01.130,551
2022-08-07T09:35:39,42.805,6.029,CST-1368DR,4626,5114,11772,01.130,551
2022-08-07T09:38:40,42.805,6.029,CST-1368DR,4626,5115,11774,01.130,551
2022-08-07T09:41:42,42.805,6.029,CST-1368DR,4626,5114,11772,01.130,551
2022-08-07T09:44:43,42.805,6.029,CST-1368DR,4626,5115,11774,01.130,551
2022-08-07T09:47:45,42.805,6.029,CST-1368DR,4626,5115,11776,01.129,551
2022-08-07T09:50:47,42.805,6.029,CST-1368DR,4625,5114,11776,01.129,551
2022-08-07T09:53:48,42.805,6.029,CST-1368DR,4626,5115,11776,01.129,551
2022-08-07T09:56:50,42.805,6.029,CST-1368DR,4626,5115,11775,01.129,551
2022-08-07T09:59:51,42.805,6.029,CST-1368DR,4625,5114,11775,01.129,551
2022-08-07T10:02:53,42.805,6.029,CST-1368DR,4626,5113,11772,01.130,551
2022-08-07T10:05:54,42.805,6.029,CST-1368DR,4626,5115,11776,01.129,551
2022-08-07T10:08:56,42.805,6.029,CST-1368DR,4625,5115,11778,01.128,551
2022-08-07T10:11:58,42.805,6.029,CST-1368DR,4626,5115,11774,01.130,551
2022-08-07T10:14:59,42.805,6.029,CST-1368DR,4625,5114,11775,01.129,551
2022-08-07T10:18:01,42.805,6.029,CST-1368DR,4626,5113,11770,01.131,551
2022-08-07T10:21:02,42.805,6.029,CST-1368DR,4626,5114,11774,01.130,551
2022-08-07T10:24:04,42.805,6.029,CST-1368DR,4625,5113,11773,01.130,551
2022-08-07T10:27:05,42.805,6.029,CST-1368DR,4626,5113,11770,01.131,551
2022-08-07T10:30:07,42.805,6.029,CST-1368DR,4626,5112,11768,01.132,551
2022-08-07T10:33:09,42.805,6.029,CST-1368DR,4626,5112,11769,01.131,551
2022-08-07T10:36:10,42.805,6.029,CST-1368DR,4626,5113,11772,01.130,551
2022-08-07T10:39:12,42.805,6.029,CST-1368DR,4626,5113,11771,01.131,551
2022-08-07T10:42:13,42.805,6.029,CST-1368DR,4626,5113,11772,01.130,551
2022-08-07T10:45:15,42.805,6.029,CST-1368DR,4626,5113,11771,01.131,551
2022-08-07T10:48:17,42.805,6.029,CST-1368DR,4625,5111,11769,01.131,551
2022-08-07T10:51:18,42.805,6.029,CST-1368DR,4625,5110,11765,01.133,551
2022-08-07T10:54:20,42.805,6.029,CST-1368DR,4625,5111,11769,01.131,551
2022-08-07T10:57:21,42.805,6.029,CST-1368DR,4625,5111,11768,01.132,551
2022-08-07T11:00:23,42.805,6.029,CST-1368DR,4625,5118,11786,01.126,551
2022-08-07T11:03:24,42.805,6.029,CST-1368DR,4626,5117,11781,01.127,551
2022-08-07T11:06:26,42.805,6.029,CST-1368DR,4626,5118,11782,01.127,551
2022-08-07T11:09:28,42.805,6.029,CST-1368DR,4625,5116,11781,01.127,551
2022-08-07T11:12:29,42.805,6.029,CST-1368DR,4625,5114,11775,01.129,551
2022-08-07T11:15:31,42.805,6.029,CST-1368DR,4626,5117,11780,01.128,551
2022-08-07T11:18:32,42.805,6.029,CST-1368DR,4626,5114,11774,01.130,551
2022-08-07T11:21:34,42.805,6.029,CST-1368DR,4625,5112,11772,01.130,551
2022-08-07T11:24:36,42.805,6.029,CST-1368DR,4625,5110,11767,01.132,551
2022-08-07T11:27:37,42.805,6.029,CST-1368DR,4626,5111,11766,01.132,551
2022-08-07T11:30:39,42.805,6.029,CST-1368DR,4625,5110,11767,01.132,551
2022-08-07T11:33:40,42.805,6.029,CST-1368DR,4625,5113,11773,01.130,551
2022-08-07T11:36:42,42.805,6.029,CST-1368DR,4625,5111,11769,01.131,551
2022-08-07T11:39:43,42.805,6.029,CST-1368DR,4625,5111,11769,01.131,551
2022-08-07T11:42:45,42.805,6.029,CST-1368DR,4625,5111,11768,01.132,551
2022-08-07T11:45:47,42.805,6.029,CST-1368DR,4625,5109,11765,01.133,551
2022-08-07T11:48:48,42.805,6.029,CST-1368DR,4625,5109,11764,01.133,551
2022-08-07T11:51:50,42.805,6.029,CST-1368DR,4625,5110,11765,01.133,551
2022-08-07T11:54:51,42.805,6.029,CST-1368DR,4625,5110,11766,01.132,551
2022-08-07T11:57:53,42.805,6.029,CST-1368DR,4625,5110,11766,01.132,551
2022-08-07T12:00:54,42.805,6.029,CST-1368DR,4625,5110,11766,01.132,551
2022-08-07T12:03:56,42.805,6.029,CST-1368DR,4625,5111,11768,01.132,551
2022-08-07T12:06:58,42.805,6.029,CST-1368DR,4625,5110,11765,01.133,551
2022-08-07T12:09:59,42.805,6.029,CST-1368DR,4625,5111,11769,01.131,551
2022-08-07T12:13:01,42.805,6.029,CST-1368DR,4625,5110,11767,01.132,551
2022-08-07T12:16:02,42.805,6.029,CST-1368DR,4625,5110,11767,01.132,551
2022-08-07T12:19:04,42.805,6.029,CST-1368DR,4625,5110,11767,01.132,551
2022-08-07T12:22:06,42.805,6.029,CST-1368DR,4625,5110,11765,01.133,551
2022-08-07T12:25:07,42.805,6.029,CST-1368DR,4625,5110,11767,01.132,551
2022-08-07T12:28:09,42.805,6.029,CST-1368DR,4625,5109,11763,01.133,551
2022-08-07T12:31:10,42.805,6.029,CST-1368DR,4625,5108,11762,01.134,551
2022-08-07T12:34:12,42.805,6.029,CST-1368DR,4625,5108,11762,01.134,551
2022-08-07T12:37:13,42.805,6.029,CST-1368DR,4625,5115,11777,01.129,551
2022-08-07T12:40:15,42.805,6.029,CST-1368DR,4625,5110,11767,01.132,551
2022-08-07T12:43:17,42.805,6.029,CST-1368DR,4625,5110,11766,01.132,551
2022-08-07T12:46:18,42.805,6.029,CST-1368DR,4625,5110,11765,01.133,551
2022-08-07T12:49:20,42.805,6.029,CST-1368DR,4625,5111,11769,01.131,551
2022-08-07T12:52:21,42.805,6.029,CST-1368DR,4625,5110,11767,01.132,551
2022-08-07T12:55:23,42.805,6.029,CST-1368DR,4625,5108,11762,01.134,551
2022-08-07T12:58:24,42.805,6.029,CST-1368DR,4625,5111,11769,01.131,551
2022-08-07T13:01:26,42.805,6.029,CST-1368DR,4625,5110,11767,01.132,551
2022-08-07T13:04:28,42.805,6.029,CST-1368DR,4625,5110,11766,01.132,551
2022-08-07T13:07:29,42.805,6.029,CST-1368DR,4625,5109,11763,01.133,551
2022-08-07T13:10:31,42.805,6.029,CST-1368DR,4625,5108,11762,01.134,551
2022-08-07T13:13:32,42.805,6.029,CST-1368DR,4625,5109,11765,01.133,551
2022-08-07T13:16:34,42.805,6.029,CST-1368DR,4625,5111,11768,01.132,551
2022-08-07T13:19:36,42.805,6.029,CST-1368DR,4625,5110,11767,01.132,551
2022-08-07T13:22:37,42.805,6.029,CST-1368DR,4625,5112,11771,01.131,551
2022-08-07T13:25:39,42.805,6.029,CST-1368DR,4625,5112,11770,01.131,551
2022-08-07T13:28:40,42.805,6.029,CST-1368DR,4625,5110,11767,01.132,551
2022-08-07T13:31:42,42.805,6.029,CST-1368DR,4625,5109,11765,01.133,551
2022-08-07T13:34:43,42.805,6.029,CST-1368DR,4625,5111,11768,01.132,551
2022-08-07T13:37:45,42.805,6.029,CST-1368DR,4625,5110,11765,01.133,551
2022-08-07T13:40:47,42.805,6.029,CST-1368DR,4625,5109,11764,01.133,551
2022-08-07T13:43:48,42.805,6.029,CST-1368DR,4625,5111,11769,01.131,551
2022-08-07T13:46:50,42.805,6.029,CST-1368DR,4625,5110,11767,01.132,551
2022-08-07T13:49:51,42.805,6.029,CST-1368DR,4625,5111,11769,01.131,551
2022-08-07T13:52:53,42.805,6.029,CST-1368DR,4625,5110,11765,01.133,551
2022-08-07T13:55:54,42.805,6.029,CST-1368DR,4625,5112,11771,01.131,551
2022-08-07T13:58:56,42.805,6.029,CST-1368DR,4625,5110,11766,01.132,551
2022-08-07T14:01:58,42.805,6.029,CST-1368DR,4625,5109,11763,01.133,551
2022-08-07T14:04:59,42.805,6.029,CST-1368DR,4625,5111,11769,01.131,551
2022-08-07T14:08:01,42.805,6.029,CST-1368DR,4625,5111,11769,01.131,551
2022-08-07T14:11:02,42.805,6.029,CST-1368DR,4625,5111,11768,01.132,551
2022-08-07T14:14:04,42.805,6.029,CST-1368DR,4625,5109,11764,01.133,551
2022-08-07T14:17:06,42.805,6.029,CST-1368DR,4625,5111,11768,01.132,551
2022-08-07T14:20:07,42.805,6.029,CST-1368DR,4625,5109,11763,01.133,551
2022-08-07T14:23:09,42.805,6.029,CST-1368DR,4625,5108,11762,01.134,551
2022-08-07T14:26:10,42.805,6.029,CST-1368DR,4625,5112,11772,01.130,551
2022-08-07T14:29:12,42.805,6.029,CST-1368DR,4625,5110,11766,01.132,551
2022-08-07T14:32:13,42.805,6.029,CST-1368DR,4625,5107,11760,01.134,551
2022-08-07T14:35:15,42.805,6.029,CST-1368DR,4625,5108,11762,01.134,551
2022-08-07T14:38:17,42.805,6.029,CST-1368DR,4625,5109,11763,01.133,551
2022-08-07T14:41:18,42.805,6.029,CST-1368DR,4625,5108,11761,01.134,551
2022-08-07T14:44:20,42.805,6.029,CST-1368DR,4625,5111,11769,01.131,551
2022-08-07T14:47:21,42.805,6.029,CST-1368DR,4625,5110,11766,01.132,551
2022-08-07T14:50:23,42.805,6.029,CST-1368DR,4625,5108,11761,01.134,551
2022-08-07T14:53:24,42.805,6.029,CST-1368DR,4625,5110,11765,01.133,551
2022-08-07T14:56:26,42.805,6.029,CST-1368DR,4625,5108,11761,01.134,551
2022-08-07T14:59:28,42.805,6.029,CST-1368DR,4625,5111,11768,01.132,551
2022-08-07T15:02:29,42.805,6.029,CST-1368DR,4625,5112,11771,01.131,551
2022-08-07T15:05:31,42.805,6.029,CST-1368DR,4625,5108,11762,01.134,551
2022-08-07T15:08:32,42.805,6.029,CST-1368DR,4625,5104,11752,01.137,551
2022-08-07T15:11:34,42.805,6.029,CST-1368DR,4625,5105,11754,01.136,551
2022-08-07T15:14:36,42.805,6.029,CST-1368DR,4625,5107,11760,01.134,551
2022-08-07T15:17:37,42.805,6.029,CST-1368DR,4625,5104,11752,01.137,551
2022-08-07T15:20:39,42.805,6.029,CST-1368DR,4625,5106,11758,01.135,551
2022-08-07T15:23:40,42.805,6.029,CST-1368DR,4625,5104,11753,01.137,551
2022-08-07T15:26:42,42.805,6.029,CST-1368DR,4625,5104,11752,01.137,551
2022-08-07T15:29:43,42.805,6.029,CST-1368DR,4625,5104,11753,01.137,551
2022-08-07T15:32:45,42.805,6.029,CST-1368DR,4625,5105,11756,01.136,551
2022-08-07T15:35:47,42.805,6.029,CST-1368DR,4625,5112,11770,01.131,551
2022-08-07T15:38:48,42.805,6.029,CST-1368DR,4625,5104,11752,01.137,551
2022-08-07T15:41:50,42.805,6.029,CST-1368DR,4625,5111,11768,01.132,551
2022-08-07T15:44:51,42.805,6.029,CST-1368DR,4625,5111,11768,01.132,551
2022-08-07T15:47:53,42.805,6.029,CST-1368DR,4625,5106,11757,01.135,551
2022-08-07T15:50:54,42.805,6.029,CST-1368DR,4625,5110,11767,01.132,551
2022-08-07T15:53:56,42.805,6.029,CST-1368DR,4625,5109,11763,01.133,551
2022-08-07T15:56:58,42.805,6.029,CST-1368DR,4625,5109,11763,01.133,551
2022-08-07T15:59:59,42.805,6.029,CST-1368DR,4625,5109,11763,01.133,551
2022-08-07T16:03:01,42.805,6.029,CST-1368DR,4625,5110,11767,01.132,551
2022-08-07T16:06:02,42.805,6.029,CST-1368DR,4625,5108,11762,01.134,551
2022-08-07T16:09:04,42.805,6.029,CST-1368DR,4625,5109,11764,01.133,551
2022-08-07T16:12:06,42.805,6.029,CST-1368DR,4625,5113,11773,01.130,551
2022-08-07T16:15:07,42.805,6.029,CST-1368DR,4625,5108,11761,01.134,551
2022-08-07T16:18:09,42.805,6.029,CST-1368DR,4625,5109,11763,01.133,551
2022-08-07T16:21:10,42.805,6.029,CST-1368DR,4625,5111,11768,01.132,551
2022-08-07T16:24:12,42.805,6.029,CST-1368DR,4625,5112,11770,01.131,551
2022-08-07T16:27:13,42.805,6.029,CST-1368DR,4625,5111,11768,01.132,551
2022-08-07T16:30:15,42.805,6.029,CST-1368DR,4625,5110,11767,01.132,551
2022-08-07T16:33:17,42.805,6.029,CST-1368DR,4625,5114,11775,01.129,551
2022-08-07T16:36:18,42.805,6.029,CST-1368DR,4625,5113,11774,01.130,551